Погода в Мисаве

Япония     40°46′09″N   141°23′06″E
темп.,
°C
ветер,
м/с
пор.,
м/с
влажн.,
%
обл.,
%
осадки,
мм/ч
давл.,
гПа
погр.,
м
11 апреля, вс
вс1100:00+6зюз345983 0.0 1033270
03:00+5юз44631 0.0 1034194
06:00+4юз34624 0.0 1035186
09:00+8з35511 0.0 1035859
12:00+10ссз35463 0.0 1034760
15:00+11ссз24474 0.0 1033653
18:00+9ююв22554 0.0 1034295
21:00+9ююв22610 0.0 103571
12 апреля, пн
пн1200:00+8ююз22610 0.0 103482
03:00+7зюз33632 0.0 1034138
06:00+6ююз347110 0.0 1033159
09:00+9ю35645 0.0 1033315
12:00+10вюв55595 0.0 1031435
15:00+11вюв687296 0.0 1028235
18:00+11ююв4672100 0.0 102793
21:00+11ююз5969100 0.0 1027203
13 апреля, вт
вт1300:00+10ююз81469100 0.0 1025389
03:00+10ю91568100 0.0 1023423
06:00+11ю81468100 0.0 1021394
09:00+12ю71265100 0.0 1018466
12:00+14ю71361100 0.0 1014502
15:00+14ю81363100 0.0 1010388
18:00+14ю91568100 0.1 1009380
21:00+13ю61075100 0.2 1007318
14 апреля, ср
ср1400:00+13ююз61181100 0.1 1007439
03:00+10сз71086100 0.9 1008321
06:00+8зсз101270100 0.4 1010473
09:00+9зсз101160100 0.4 1011617
12:00+9сз101151100 0.0 1011904
15:00+7сз121452100 0.0 1012957
18:00+6сз121551100 0.0 10131323
21:00+5сз9125146 0.0 10161751
15 апреля, чт
чт1500:00+5сз913500 0.0 10161479
03:00+4сз711510 0.0 10181474
06:00+4з510545 0.0 1020889
09:00+8зсз8114418 0.0 10202132
12:00+9сз811403 0.0 10201793
15:00+10зсз810455 0.0 10211229
18:00+9зсз69563 0.0 1022954
21:00+8з356115 0.0 1024339